TimeEDT,TemperatureF,Dew PointF,Humidity,Sea Level PressureIn,VisibilityMPH,Wind Direction,Wind SpeedMPH,Gust SpeedMPH,PrecipitationIn,Events,Conditions,WindDirDegrees,DateUTC
12:53 AM,57.9,57.0,97,30.16,8.0,Calm,Calm,-,N/A,,Clear,0,2013-10-14 04:53:00
1:53 AM,57.9,55.9,93,30.16,8.0,Calm,Calm,-,N/A,,Mostly Cloudy,0,2013-10-14 05:53:00
2:53 AM,59.0,57.9,96,30.16,8.0,Calm,Calm,-,N/A,,Overcast,0,2013-10-14 06:53:00
3:53 AM,61.0,59.0,93,30.16,10.0,Calm,Calm,-,N/A,,Overcast,0,2013-10-14 07:53:00
4:53 AM,61.0,59.0,93,30.16,8.0,Calm,Calm,-,N/A,,Overcast,0,2013-10-14 08:53:00
5:53 AM,60.1,57.9,93,30.17,7.0,Calm,Calm,-,N/A,,Mostly Cloudy,0,2013-10-14 09:53:00
6:53 AM,59.0,57.0,93,30.18,5.0,Calm,Calm,-,N/A,,Clear,0,2013-10-14 10:53:00
7:53 AM,57.9,57.0,97,30.19,4.0,Calm,Calm,-,N/A,,Clear,0,2013-10-14 11:53:00
8:53 AM,62.1,59.0,90,30.21,8.0,Calm,Calm,-,N/A,,Clear,0,2013-10-14 12:53:00
9:53 AM,66.9,61.0,81,30.21,10.0,Calm,Calm,-,N/A,,Partly Cloudy,0,2013-10-14 13:53:00
10:53 AM,70.0,61.0,73,30.21,10.0,Variable,3.5,-,N/A,,Partly Cloudy,0,2013-10-14 14:53:00
11:53 AM,71.1,60.1,68,30.19,10.0,NE,5.8,-,N/A,,Partly Cloudy,50,2013-10-14 15:53:00
12:53 PM,73.0,60.1,64,30.18,10.0,NE,6.9,-,N/A,,Overcast,40,2013-10-14 16:53:00
1:53 PM,77.0,60.1,56,30.15,10.0,NE,5.8,-,N/A,,Overcast,50,2013-10-14 17:53:00
2:53 PM,75.9,59.0,56,30.11,10.0,NE,8.1,-,N/A,,Mostly Cloudy,50,2013-10-14 18:53:00
3:53 PM,77.0,57.9,52,30.10,10.0,Variable,4.6,-,N/A,,Partly Cloudy,0,2013-10-14 19:53:00
4:53 PM,75.0,59.0,57,30.10,10.0,SE,4.6,-,N/A,,Scattered Clouds,130,2013-10-14 20:53:00
5:53 PM,73.9,59.0,59,30.11,10.0,ESE,4.6,-,N/A,,Clear,120,2013-10-14 21:53:00
6:53 PM,68.0,60.1,76,30.12,10.0,Calm,Calm,-,N/A,,Clear,0,2013-10-14 22:53:00
7:53 PM,63.0,59.0,87,30.13,10.0,Calm,Calm,-,N/A,,Clear,0,2013-10-14 23:53:00
8:53 PM,61.0,59.0,93,30.12,10.0,Calm,Calm,-,N/A,,Clear,0,2013-10-15 00:53:00
9:53 PM,60.1,57.9,93,30.14,10.0,Calm,Calm,-,N/A,,Clear,0,2013-10-15 01:53:00
10:53 PM,59.0,57.0,93,30.14,10.0,Calm,Calm,-,N/A,,Clear,0,2013-10-15 02:53:00
11:53 PM,57.9,57.0,97,30.15,10.0,Calm,Calm,-,N/A,,Clear,0,2013-10-15 03:53:00